User: anonymous   Login
Location: Unspecified
(0.0000°N, 0.0000°E)
Time: 00:52:10
(UTC+00:00)
Language:

STARLINK-3668 - Orbit

View from above orbital plane
View from above orbital plane
View from above satellite
View from above satellite

Ground track
Ground track

The orbit is defined by the following mean orbital elements,

1 52002U          26145.40046053 +.00000000 +00000-0 +26991-3 0 00002
2 52002  53.2144  34.7883 0001374  81.0917 279.0231 15.08838639    09
Epoch (UTC): 25 May 2026 09:36:39
Eccentricity: 0.0001374
inclination: 53.2144°
perigee height: 539 km
apogee height: 541 km
right ascension of ascending node: 34.7883°
argument of perigee: 81.0917°
revolutions per day: 15.08838639
mean anomaly at epoch: 279.0231°

The dashed part of the orbit path shows where the satellite is in the earth's shadow,  

DLR